Regional Weather Roundup
Issued by NWS

Home | Current Version | Previous Version | Graphics & Text | Print | Product List | Glossary On
Versions: 1 2 3 4 5 6 7 8 9 10 11 12 13 14 15 16 17 18 19 20 21 22 23 24 25 26 27 28 29 30 31 32 33 34 35 36 37 38 39 40 41 42 43 44 45 46 47 48 49 50
866
ASUS43 KOAX 031802
RWRNE

WEATHER ROUNDUP FOR NEBRASKA
NATIONAL WEATHER SERVICE OMAHA NE
100 PM CDT TUE MAY 03 2016

NOTES: SATELLITE DATA IS BEING USED TO AUGMENT CLOUD COVER ABOVE
       12000 FEET.
       "FAIR" INDICATES FEW OR NO CLOUDS BELOW 12,000 FEET WITH NO
       SIGNIFICANT WEATHER AND/OR OBSTRUCTIONS TO VISIBILITY.

  * THESE STATIONS DO NOT REPORT WEATHER SUCH AS RAIN...SNOW OR FOG.

NEZ001>004-019>022-054>056-031900-
NEBRASKA PANHANDLE

CITY           SKY/WX    TMP DP  RH WIND       PRES   REMARKS
SCOTTSBLUFF    SUNNY     68  35  29 NW18G24   30.14F
6HR MIN TEMP:  36; 6HR MAX TEMP:  69;

ALLIANCE       SUNNY     64  33  31 N16       30.13S
6HR MIN TEMP:  30; 6HR MAX TEMP:  64;

CHADRON        SUNNY     68  31  25 N13       30.13F
6HR MIN TEMP:  34; 6HR MAX TEMP:  68;

KIMBALL        SUNNY     60  38  42 N21       30.19S
SIDNEY         SUNNY     63  37  38 N17G23    30.16F
6HR MIN TEMP:  38; 6HR MAX TEMP:  63;

$$

NEZ057>060-069>072-079>082-031900-
SOUTHWEST NEBRASKA

CITY           SKY/WX    TMP DP  RH WIND       PRES   REMARKS
NORTH PLATTE   SUNNY     61  45  55 W7        30.10F
6HR MIN TEMP:  39; 6HR MAX TEMP:  61;

IMPERIAL       SUNNY     59  43  55 N16       30.13F
6HR MIN TEMP:  40; 6HR MAX TEMP:  60;

LEXINGTON      SUNNY     61  38  42 CALM      30.09S
MCCOOK         PTSUNNY   61  45  55 N10       30.11S
6HR MIN TEMP:  38; 6HR MAX TEMP:  62;

$$

NEZ005>010-023>029-035>040-094-031900-
NORTH CENTRAL NEBRASKA

CITY           SKY/WX    TMP DP  RH WIND       PRES   REMARKS
VALENTINE      SUNNY     64  38  38 NW10G22   30.07F
6HR MIN TEMP:  33; 6HR MAX TEMP:  64;

AINSWORTH      SUNNY     62  40  44 NW10G20   30.08S
BROKEN BOW     SUNNY     62  42  47 SW5       30.08F
6HR MIN TEMP:  40; 6HR MAX TEMP:  62;

ORD            SUNNY     63  40  42 W9        30.05F
6HR MIN TEMP:  35; 6HR MAX TEMP:  63;

$$

NEZ041-046>049-061>064-073>077-083>087-031900-
SOUTH CENTRAL NEBRASKA

CITY           SKY/WX    TMP DP  RH WIND       PRES   REMARKS
GRAND ISLAND   SUNNY     64  36  35 NW6       30.07F
6HR MIN TEMP:  38; 6HR MAX TEMP:  64;

AURORA         SUNNY     64  41  43 CALM      30.06F
HASTINGS       SUNNY     63  39  41 CALM      30.06F
6HR MIN TEMP:  37; 6HR MAX TEMP:  64;

KEARNEY *      SUNNY     63  39  42 CALM      30.09S
YORK           SUNNY     64  39  39 W5        30.06F
$$

NEZ011>018-030>034-042>045-031900-
NORTHEAST NEBRASKA

CITY           SKY/WX    TMP DP  RH WIND       PRES   REMARKS
NORFOLK        SUNNY     66  39  37 W15       30.02F
6HR MIN TEMP:  41; 6HR MAX TEMP:  66;

ALBION         MOSUNNY   65  40  38 W7        30.04F
BLAIR          SUNNY     65  41  41 W9G16     30.03F
COLUMBUS *     SUNNY     66  41  39 SW7       30.05F
FREMONT        SUNNY     65  39  38 W9        30.04F
TEKAMAH        MOSUNNY   66  42  41 W10G20    30.01F
6HR MIN TEMP:  42; 6HR MAX TEMP:  67;

$$

NEZ050>053-065>068-078-088>093-031900-
SOUTHEAST NEBRASKA

CITY           SKY/WX    TMP DP  RH WIND       PRES   REMARKS
LINCOLN        SUNNY     67  39  35 VRB3      30.05F
6HR MIN TEMP:  41; 6HR MAX TEMP:  68;

OMAHA EPPLEY   MOSUNNY   67  41  38 W6        30.02F
6HR MIN TEMP:  43; 6HR MAX TEMP:  68;

BEATRICE       SUNNY     65  41  41 W5        30.05F
FALLS CITY     PTSUNNY   67  43  41 MISG      30.04F
6HR MIN TEMP:  42; 6HR MAX TEMP:  68;

$$

NEZ044-045-051>053-067-031900-
OMAHA AREA

CITY           SKY/WX    TMP DP  RH WIND       PRES   REMARKS
OMAHA EPPLEY   MOSUNNY   67  41  38 W6        30.02F
6HR MIN TEMP:  43; 6HR MAX TEMP:  68;

BLAIR          SUNNY     65  41  41 W9G16     30.03F
FREMONT        SUNNY     65  39  38 W9        30.04F
OFFUTT AFB     SUNNY     65  41  41 W10       30.02F
$$




USA.gov is the U.S. government's official web portal to all federal, state and local government web resources and services.